Location: Artiguedieu
(43.5000°N, 0.5454°E)
Time: 20:48:21
(UTC+00:00)

Transit 2A - Pass Details

Date: 02 August 2021
Orbit: 594 x 964 km, 66.7° (Epoch: 28 September)

Event Time Altitude Azimuth Distance (km) Brightness Sun altitude
Rises 15:03:24 0° 325° (NW) 3,270 9.4 44.3°
Reaches altitude 10° 15:05:45 10° 321° (NW) 2,394 8.9 43.9°
Maximum altitude 15:11:12 59° 243° (WSW) 995 8.5 43.0°
Drops below altitude 10° 15:17:08 10° 166° (SSE) 2,603 8.9 41.9°
Sets 15:19:46 0° 163° (SSE) 3,578 9.5 41.5°
